Read MPEC 2005-J65
Read MPEC 2005-J67
M.P.E.C. 2005-J66 Issued 2005 May 15, 09:42 UT
The Minor Planet Electronic Circulars contain information on unusual
minor planets and routine data on comets. They are published
on behalf of Commission 20 of the International Astronomical Union by the
Minor Planet Center, Smithsonian Astrophysical Observatory,
Cambridge, MA 02138, U.S.A.
Supported in part by the Brinson Foundation
Prepared using the Tamkin Foundation Computer Network
MPC@CFA.HARVARD.EDU
URL http://cfa-www.harvard.edu/iau/mpc.html ISSN 1523-6714
2005 JS108
Observations:
K05JA8S* C2005 05 14.34534 16 44 24.04 -06 13 52.4 18.9 EJ066704
K05JA8S C2005 05 14.35490 16 44 23.33 -06 13 49.1 19.2 EJ066704
K05JA8S C2005 05 14.36416 16 44 22.55 -06 13 44.4 19.2 EJ066704
K05JA8S C2005 05 14.37394 16 44 21.79 -06 13 39.3 19.3 EJ066704
K05JA8S C2005 05 14.91293 16 43 44.60 -06 09 38.6 EJ066A50
K05JA8S C2005 05 14.91439 16 43 44.50 -06 09 38.4 EJ066A50
K05JA8S C2005 05 14.91584 16 43 44.27 -06 09 36.9 EJ066A50
K05JA8S C2005 05 14.91877 16 43 44.02 -06 09 36.6 19.5 V EJ066A50
K05JA8S C2005 05 14.92023 16 43 43.93 -06 09 35.0 EJ066A50
K05JA8S C2005 05 14.92169 16 43 43.74 -06 09 34.7 EJ066A50
K05JA8S C2005 05 14.97663 16 43 40.12 -06 09 08.5 19.0 R EJ066952
K05JA8S C2005 05 14.98070 16 43 39.84 -06 09 06.5 18.6 R EJ066952
K05JA8S C2005 05 14.98451 16 43 39.56 -06 09 05.1 18.9 R EJ066952
K05JA8S C2005 05 14.98575 16 43 39.38 -06 09 06.1 EJ066J95
K05JA8S C2005 05 14.98830 16 43 39.22 -06 09 03.7 EJ066952
K05JA8S C2005 05 14.99000 16 43 39.07 -06 09 04.8 EJ066J95
K05JA8S C2005 05 14.99431 16 43 38.67 -06 09 03.1 19.6 R EJ066J95
K05JA8S 5C2005 05 15.24815 16 43 20.91 -06 07 04.3 19.2 R EJ066673
K05JA8S 5C2005 05 15.25023 16 43 20.77 -06 07 03.2 EJ066673
K05JA8S 5C2005 05 15.25660 16 43 20.27 -06 07 00.5 EJ066673
K05JA8S 5C2005 05 15.26250 16 43 19.82 -06 06 57.8 EJ066673
Observer details:
673 Table Mountain Observatory, Wrightwood. Observer J. Young. 0.6-m
reflector + CCD.
704 Lincoln Laboratory ETS, New Mexico. Observers M. Blythe, F. Shelly,
M. Bezpalko, R. Huber, L. Manguso, D. Torres, R. Kracke, M. McCleary,
H. Stange, A. Milner. Measurers J. Stuart, R. Sayer, J. Evans, J. Kommers.
1.0-m f/2.15 reflector + CCD.
952 Marxuquera. Observer J. J. Gomez. 0.36-m f/6.3 Schmidt-Cassegrain + CCD.
A50 Andrushivka Astronomical Observatory. Observers O. Gerashchenko,
Y. Ivashchenko. 0.6-m f/2.0 reflector + CCD.
J95 Great Shefford. Observer P. Birtwhistle. 0.30-m f/6.3 Schmidt-Cassegrain
+ CCD.
Orbital elements:
2005 JS108 PHA 0.031
Epoch 2005 May 10.0 TT = JDT 2453500.5 MPC
M 279.30519 (2000.0) P Q
n 0.59582096 Peri. 242.11465 +0.99178669 +0.07871611
a 1.3987031 Node 113.22148 -0.03796144 +0.93383155
e 0.3398862 Incl. 6.29793 -0.12213967 +0.34894472
P 1.65 H 19.2 G 0.15
From 21 observations 2005 May 14-15.
Ephemeris:
2005 JS108 a,e,i = 1.40, 0.34, 6 q = 0.9233
Date TT R. A. (2000) Decl. Delta r Elong. Phase V
2005 05 10 16 48.80 -06 47.2 0.508 1.480 153.1 18.0 19.5
2005 05 20 16 36.89 -05 32.5 0.438 1.433 161.2 13.1 19.0
2005 05 30 16 18.94 -04 33.9 0.383 1.384 162.7 12.6 18.6
2005 06 09 15 56.44 -04 08.0 0.344 1.333 154.4 19.2 18.5
2005 06 19 15 32.69 -04 30.6 0.318 1.282 141.8 29.3 18.5
2005 06 29 15 11.28 -05 47.8 0.303 1.229 128.8 40.2 18.6
2005 07 09 14 54.67 -07 57.3 0.293 1.177 116.5 50.7 18.8
2005 07 19 14 43.72 -10 53.7 0.284 1.126 105.5 60.5 18.9
2005 07 29 14 37.54 -14 31.7 0.272 1.077 95.6 69.8 19.0
2005 08 08 14 34.54 -18 51.9 0.256 1.032 86.7 78.9 19.1
2005 08 18 14 32.39 -24 00.2 0.235 0.992 78.4 88.2 19.1
2005 08 28 14 27.37 -30 06.8 0.209 0.960 70.3 97.9 19.2
2005 09 07 14 13.60 -37 23.4 0.181 0.937 62.2 107.9 19.4
2005 09 17 13 39.72 -45 37.9 0.155 0.925 55.0 117.2 19.6
2005 09 27 12 26.74 -52 46.1 0.134 0.925 51.3 122.2 19.7
2005 10 07 10 34.47 -53 40.8 0.123 0.936 55.6 118.2 19.2
2005 10 17 08 56.97 -46 22.2 0.122 0.958 68.0 105.2 18.4
2005 10 27 07 57.86 -35 48.9 0.128 0.989 84.1 88.5 17.8
2005 11 06 07 19.20 -25 29.4 0.139 1.028 101.4 71.0 17.5
2005 11 16 06 47.71 -15 52.7 0.154 1.073 119.3 53.5 17.2
2005 11 26 06 18.70 -06 57.5 0.174 1.121 137.3 36.6 17.1
2005 12 06 05 52.24 +01 02.5 0.204 1.172 153.8 21.8 17.2
2005 12 16 05 30.90 +07 42.3 0.248 1.225 164.4 12.5 17.4
2005 12 26 05 16.43 +12 51.8 0.305 1.277 161.9 13.8 17.9
2006 01 05 05 09.14 +16 42.9 0.376 1.329 152.7 19.9 18.7
2006 01 15 05 08.42 +19 34.1 0.460 1.380 143.1 25.3 19.4
2006 01 25 05 13.00 +21 41.7 0.556 1.429 134.3 29.5 20.0
2006 02 04 05 21.78 +23 17.5 0.661 1.476 126.3 32.6 20.5
2006 02 14 05 33.82 +24 28.8 0.774 1.521 119.0 34.6 21.0
2006 02 24 05 48.31 +25 20.1 0.894 1.564 112.2 35.9 21.4
2006 03 06 06 04.66 +25 54.2 1.019 1.604 105.8 36.5 21.8
2006 03 16 06 22.42 +26 12.6 1.147 1.642 99.8 36.6 22.1
Timothy B. Spahr (C) Copyright 2005 MPC M.P.E.C. 2005-J66
Read MPEC 2005-J65
Read MPEC 2005-J67
Our Web policy. Index to the CBAT/MPC/ICQ pages.